Location: Arbon
(43.0005°N, 0.7472°E)
Time: 02:30:17
(UTC+00:00)

USA 215 - Pass Details

Date: 07 August 2020
Orbit: 1102 x 1106 km, 123.0° (Epoch: 08 August)

Event Time Altitude Azimuth Distance (km) Brightness Sun altitude
Rises 03:24:11 0° 48° (NE) 3,928 8.1 -14.9°
Reaches altitude 10° 03:26:46 10° 43° (NE) 2,967 6.9 -14.5°
Maximum altitude 03:32:56 46° 333° (NNW) 1,449 4.0 -13.6°
Enters shadow 03:38:48 11° 263° (W) 2,860 4.9 -12.8°
